Location: Kuppenheim
(48.8299°N, 8.2568°E)
Time: 10:11:44
(UTC+00:00)

Meteor 2-14 Rocket - Pass Details

Date: 20 June 2021
Orbit: 937 x 956 km, 82.5° (Epoch: 03 August)

Event Time Altitude Azimuth Distance (km) Brightness Sun altitude
Exits shadow 02:11:39 - 189° (S) 2,915 6.5 -9.1°
Reaches altitude 10° 02:12:20 10° 190° (S) 2,661 6.3 -9.0°
Maximum altitude 02:18:26 86° 278° (W) 960 4.5 -8.4°
Drops below altitude 10° 02:24:37 10° 9° (N) 2,693 7.9 -7.8°
Sets 02:27:08 0° 10° (N) 3,644 8.7 -7.5°
